owner,sensor,date,latitude,longitude,air_pressure(mBar),qcFlag 
WAVCIS,ioos:station:WAVCIS:CSI03:1,2013-03-01T00:00:00Z,29.4412,-92.0613,1013.55,11111222 
WAVCIS,ioos:station:WAVCIS:CSI03:1,2013-03-01T01:00:00Z,29.4412,-92.0613,1014.26,11111222 
WAVCIS,ioos:station:WAVCIS:CSI03:1,2013-03-01T02:00:00Z,29.4412,-92.0613,1014.66,11111222 
WAVCIS,ioos:station:WAVCIS:CSI03:1,2013-03-01T03:00:00Z,29.4412,-92.0613,1015.17,11111222 
WAVCIS,ioos:station:WAVCIS:CSI03:1,2013-03-01T04:00:00Z,29.4412,-92.0613,1015.3,11111222 
WAVCIS,ioos:station:WAVCIS:CSI03:1,2013-03-01T05:00:00Z,29.4412,-92.0613,1015.03,11111222 
WAVCIS,ioos:station:WAVCIS:CSI03:1,2013-03-01T06:00:00Z,29.4412,-92.0613,1014.93,11111222 
WAVCIS,ioos:station:WAVCIS:CSI03:1,2013-03-01T07:00:00Z,29.4412,-92.0613,1014.77,11111222 
WAVCIS,ioos:station:WAVCIS:CSI03:1,2013-03-01T08:00:00Z,29.4412,-92.0613,1014.56,11111222 
WAVCIS,ioos:station:WAVCIS:CSI03:1,2013-03-01T09:00:00Z,29.4412,-92.0613,1014.36,11111222 
WAVCIS,ioos:station:WAVCIS:CSI03:1,2013-03-01T10:00:00Z,29.4412,-92.0613,1014.37,11111222 
WAVCIS,ioos:station:WAVCIS:CSI03:1,2013-03-01T11:00:00Z,29.4412,-92.0613,1014.49,11111222 
WAVCIS,ioos:station:WAVCIS:CSI03:1,2013-03-01T12:00:00Z,29.4412,-92.0613,1014.83,11111222 
WAVCIS,ioos:station:WAVCIS:CSI03:1,2013-03-01T13:00:00Z,29.4412,-92.0613,1015.1,11111222 
WAVCIS,ioos:station:WAVCIS:CSI03:1,2013-03-01T14:00:00Z,29.4412,-92.0613,1015.34,11111222 
WAVCIS,ioos:station:WAVCIS:CSI03:1,2013-03-01T15:00:00Z,29.4412,-92.0613,1016.16,11111222 
WAVCIS,ioos:station:WAVCIS:CSI03:1,2013-03-01T16:00:00Z,29.4412,-92.0613,1016.02,11111222 
WAVCIS,ioos:station:WAVCIS:CSI03:1,2013-03-01T17:00:00Z,29.4412,-92.0613,1016.22,11111222 
WAVCIS,ioos:station:WAVCIS:CSI03:1,2013-03-01T18:00:00Z,29.4412,-92.0613,1015.73,11111222 
WAVCIS,ioos:station:WAVCIS:CSI03:1,2013-03-01T19:00:00Z,29.4412,-92.0613,1014.88,11111222 
WAVCIS,ioos:station:WAVCIS:CSI03:1,2013-03-01T20:00:00Z,29.4412,-92.0613,1013.92,11111222 
WAVCIS,ioos:station:WAVCIS:CSI03:1,2013-03-01T21:00:00Z,29.4412,-92.0613,1013.52,11111222 
WAVCIS,ioos:station:WAVCIS:CSI03:1,2013-03-01T22:00:00Z,29.4412,-92.0613,1013.31,11111222 
WAVCIS,ioos:station:WAVCIS:CSI03:1,2013-03-01T23:00:00Z,29.4412,-92.0613,1013.05,11111222 
WAVCIS,ioos:station:WAVCIS:CSI03:1,2013-03-02T00:00:00Z,29.4412,-92.0613,1013.71,11111222 
WAVCIS,ioos:station:WAVCIS:CSI03:1,2013-03-02T01:00:00Z,29.4412,-92.0613,1014.32,11111222 
WAVCIS,ioos:station:WAVCIS:CSI03:1,2013-03-02T02:00:00Z,29.4412,-92.0613,1015.1,11111222 
WAVCIS,ioos:station:WAVCIS:CSI03:1,2013-03-02T03:00:00Z,29.4412,-92.0613,1015.7,11111222 
WAVCIS,ioos:station:WAVCIS:CSI03:1,2013-03-02T04:00:00Z,29.4412,-92.0613,1016.0,11111222 
WAVCIS,ioos:station:WAVCIS:CSI03:1,2013-03-02T05:00:00Z,29.4412,-92.0613,1016.13,11111222 
WAVCIS,ioos:station:WAVCIS:CSI03:1,2013-03-02T06:00:00Z,29.4412,-92.0613,1016.12,11111222 
WAVCIS,ioos:station:WAVCIS:CSI03:1,2013-03-02T07:00:00Z,29.4412,-92.0613,1015.85,11111222 
WAVCIS,ioos:station:WAVCIS:CSI03:1,2013-03-02T08:00:00Z,29.4412,-92.0613,1015.8,11111222 
WAVCIS,ioos:station:WAVCIS:CSI03:1,2013-03-02T09:00:00Z,29.4412,-92.0613,1015.67,11111222 
WAVCIS,ioos:station:WAVCIS:CSI03:1,2013-03-02T10:00:00Z,29.4412,-92.0613,1015.66,11111222 
WAVCIS,ioos:station:WAVCIS:CSI03:1,2013-03-02T11:00:00Z,29.4412,-92.0613,1015.93,11111222 
WAVCIS,ioos:station:WAVCIS:CSI03:1,2013-03-02T12:00:00Z,29.4412,-92.0613,1016.28,11111222 
WAVCIS,ioos:station:WAVCIS:CSI03:1,2013-03-02T13:00:00Z,29.4412,-92.0613,1016.44,11111222 
WAVCIS,ioos:station:WAVCIS:CSI03:1,2013-03-02T14:00:00Z,29.4412,-92.0613,1017.19,11111222 
WAVCIS,ioos:station:WAVCIS:CSI03:1,2013-03-02T15:00:00Z,29.4412,-92.0613,1017.63,11111222 
WAVCIS,ioos:station:WAVCIS:CSI03:1,2013-03-02T16:00:00Z,29.4412,-92.0613,1017.87,11111222 
WAVCIS,ioos:station:WAVCIS:CSI03:1,2013-03-02T17:00:00Z,29.4412,-92.0613,1018.01,11111222 
WAVCIS,ioos:station:WAVCIS:CSI03:1,2013-03-02T18:00:00Z,29.4412,-92.0613,1017.87,11111222 
WAVCIS,ioos:station:WAVCIS:CSI03:1,2013-03-02T19:00:00Z,29.4412,-92.0613,1016.87,11111222 
WAVCIS,ioos:station:WAVCIS:CSI03:1,2013-03-02T20:00:00Z,29.4412,-92.0613,1016.17,11111222 
WAVCIS,ioos:station:WAVCIS:CSI03:1,2013-03-02T21:00:00Z,29.4412,-92.0613,1015.93,11111222 
WAVCIS,ioos:station:WAVCIS:CSI03:1,2013-03-02T22:00:00Z,29.4412,-92.0613,1016.16,11111222 
WAVCIS,ioos:station:WAVCIS:CSI03:1,2013-03-02T23:00:00Z,29.4412,-92.0613,1016.38,11111222 
WAVCIS,ioos:station:WAVCIS:CSI03:1,2013-03-03T00:00:00Z,29.4412,-92.0613,1016.64,11111222 
WAVCIS,ioos:station:WAVCIS:CSI03:1,2013-03-03T01:00:00Z,29.4412,-92.0613,1017.74,11111222 
WAVCIS,ioos:station:WAVCIS:CSI03:1,2013-03-03T02:00:00Z,29.4412,-92.0613,1018.41,11111222 
WAVCIS,ioos:station:WAVCIS:CSI03:1,2013-03-03T03:00:00Z,29.4412,-92.0613,1018.53,11111222 
WAVCIS,ioos:station:WAVCIS:CSI03:1,2013-03-03T04:00:00Z,29.4412,-92.0613,1018.66,11111222 
WAVCIS,ioos:station:WAVCIS:CSI03:1,2013-03-03T05:00:00Z,29.4412,-92.0613,1018.79,11111222 
WAVCIS,ioos:station:WAVCIS:CSI03:1,2013-03-03T06:00:00Z,29.4412,-92.0613,1018.81,11111222 
WAVCIS,ioos:station:WAVCIS:CSI03:1,2013-03-03T07:00:00Z,29.4412,-92.0613,1018.66,11111222 
WAVCIS,ioos:station:WAVCIS:CSI03:1,2013-03-03T08:00:00Z,29.4412,-92.0613,1018.43,11111222 
WAVCIS,ioos:station:WAVCIS:CSI03:1,2013-03-03T09:00:00Z,29.4412,-92.0613,1017.85,11111222 
WAVCIS,ioos:station:WAVCIS:CSI03:1,2013-03-03T10:00:00Z,29.4412,-92.0613,1017.73,11111222 
WAVCIS,ioos:station:WAVCIS:CSI03:1,2013-03-03T11:00:00Z,29.4412,-92.0613,1018.21,11111222 
WAVCIS,ioos:station:WAVCIS:CSI03:1,2013-03-03T12:00:00Z,29.4412,-92.0613,1018.63,11111222 
WAVCIS,ioos:station:WAVCIS:CSI03:1,2013-03-03T13:00:00Z,29.4412,-92.0613,1018.85,11111222 
WAVCIS,ioos:station:WAVCIS:CSI03:1,2013-03-03T14:00:00Z,29.4412,-92.0613,1019.24,11111222 
WAVCIS,ioos:station:WAVCIS:CSI03:1,2013-03-03T15:00:00Z,29.4412,-92.0613,1020.01,11111222 
WAVCIS,ioos:station:WAVCIS:CSI03:1,2013-03-03T16:00:00Z,29.4412,-92.0613,1019.91,11111222 
WAVCIS,ioos:station:WAVCIS:CSI03:1,2013-03-03T17:00:00Z,29.4412,-92.0613,1019.89,11111222 
WAVCIS,ioos:station:WAVCIS:CSI03:1,2013-03-03T18:00:00Z,29.4412,-92.0613,1018.81,11111222 
WAVCIS,ioos:station:WAVCIS:CSI03:1,2013-03-03T19:00:00Z,29.4412,-92.0613,1018.03,11111222 
WAVCIS,ioos:station:WAVCIS:CSI03:1,2013-03-03T20:00:00Z,29.4412,-92.0613,1017.1,11111222 
WAVCIS,ioos:station:WAVCIS:CSI03:1,2013-03-03T21:00:00Z,29.4412,-92.0613,1016.62,11111222 
WAVCIS,ioos:station:WAVCIS:CSI03:1,2013-03-03T22:00:00Z,29.4412,-92.0613,1016.23,11111222 
WAVCIS,ioos:station:WAVCIS:CSI03:1,2013-03-03T23:00:00Z,29.4412,-92.0613,1015.95,11111222 
WAVCIS,ioos:station:WAVCIS:CSI03:1,2013-03-04T00:00:00Z,29.4412,-92.0613,1015.54,11111222 
WAVCIS,ioos:station:WAVCIS:CSI03:1,2013-03-04T01:00:00Z,29.4412,-92.0613,1015.46,11111222 
WAVCIS,ioos:station:WAVCIS:CSI03:1,2013-03-04T02:00:00Z,29.4412,-92.0613,1015.49,11111222 
WAVCIS,ioos:station:WAVCIS:CSI03:1,2013-03-04T03:00:00Z,29.4412,-92.0613,1014.87,11111222 
WAVCIS,ioos:station:WAVCIS:CSI03:1,2013-03-04T04:00:00Z,29.4412,-92.0613,1014.98,11111222 
WAVCIS,ioos:station:WAVCIS:CSI03:1,2013-03-04T05:00:00Z,29.4412,-92.0613,1014.19,11111222 
WAVCIS,ioos:station:WAVCIS:CSI03:1,2013-03-04T06:00:00Z,29.4412,-92.0613,1013.53,11111222 
WAVCIS,ioos:station:WAVCIS:CSI03:1,2013-03-04T07:00:00Z,29.4412,-92.0613,1012.73,11111222 
WAVCIS,ioos:station:WAVCIS:CSI03:1,2013-03-04T08:00:00Z,29.4412,-92.0613,1012.32,11111222 
WAVCIS,ioos:station:WAVCIS:CSI03:1,2013-03-04T09:00:00Z,29.4412,-92.0613,1011.88,11111222 
WAVCIS,ioos:station:WAVCIS:CSI03:1,2013-03-04T10:00:00Z,29.4412,-92.0613,1011.55,11111222 
WAVCIS,ioos:station:WAVCIS:CSI03:1,2013-03-04T11:00:00Z,29.4412,-92.0613,1011.52,11111222 
WAVCIS,ioos:station:WAVCIS:CSI03:1,2013-03-04T12:00:00Z,29.4412,-92.0613,1011.3,11111222 
WAVCIS,ioos:station:WAVCIS:CSI03:1,2013-03-04T13:00:00Z,29.4412,-92.0613,1010.97,11111222 
WAVCIS,ioos:station:WAVCIS:CSI03:1,2013-03-04T14:00:00Z,29.4412,-92.0613,1011.25,11111222 
WAVCIS,ioos:station:WAVCIS:CSI03:1,2013-03-04T15:00:00Z,29.4412,-92.0613,1011.26,11111222 
WAVCIS,ioos:station:WAVCIS:CSI03:1,2013-03-04T16:00:00Z,29.4412,-92.0613,1011.14,11111222 
WAVCIS,ioos:station:WAVCIS:CSI03:1,2013-03-04T17:00:00Z,29.4412,-92.0613,1011.03,11111222 
WAVCIS,ioos:station:WAVCIS:CSI03:1,2013-03-04T18:00:00Z,29.4412,-92.0613,1010.44,11111222 
WAVCIS,ioos:station:WAVCIS:CSI03:1,2013-03-04T19:00:00Z,29.4412,-92.0613,1009.53,11111222 
WAVCIS,ioos:station:WAVCIS:CSI03:1,2013-03-04T20:00:00Z,29.4412,-92.0613,1008.69,11111222 
WAVCIS,ioos:station:WAVCIS:CSI03:1,2013-03-04T21:00:00Z,29.4412,-92.0613,1008.47,11111222 
WAVCIS,ioos:station:WAVCIS:CSI03:1,2013-03-04T22:00:00Z,29.4412,-92.0613,1007.88,11111222 
WAVCIS,ioos:station:WAVCIS:CSI03:1,2013-03-04T23:00:00Z,29.4412,-92.0613,1007.45,11111222 
WAVCIS,ioos:station:WAVCIS:CSI03:1,2013-03-05T00:00:00Z,29.4412,-92.0613,1007.23,11111222 
WAVCIS,ioos:station:WAVCIS:CSI03:1,2013-03-05T01:00:00Z,29.4412,-92.0613,1007.09,11111222 
WAVCIS,ioos:station:WAVCIS:CSI03:1,2013-03-05T02:00:00Z,29.4412,-92.0613,1006.82,11111222 
WAVCIS,ioos:station:WAVCIS:CSI03:1,2013-03-05T03:00:00Z,29.4412,-92.0613,1006.51,11111222 
WAVCIS,ioos:station:WAVCIS:CSI03:1,2013-03-05T04:00:00Z,29.4412,-92.0613,1007.16,11111222 
WAVCIS,ioos:station:WAVCIS:CSI03:1,2013-03-05T05:00:00Z,29.4412,-92.0613,1006.77,11111222 
WAVCIS,ioos:station:WAVCIS:CSI03:1,2013-03-05T06:00:00Z,29.4412,-92.0613,1007.21,11111222 
WAVCIS,ioos:station:WAVCIS:CSI03:1,2013-03-05T07:00:00Z,29.4412,-92.0613,1007.19,11111222 
WAVCIS,ioos:station:WAVCIS:CSI03:1,2013-03-05T08:00:00Z,29.4412,-92.0613,1007.38,11111222 
WAVCIS,ioos:station:WAVCIS:CSI03:1,2013-03-05T09:00:00Z,29.4412,-92.0613,1006.7,11111222 
WAVCIS,ioos:station:WAVCIS:CSI03:1,2013-03-05T10:00:00Z,29.4412,-92.0613,1006.62,11111222 
WAVCIS,ioos:station:WAVCIS:CSI03:1,2013-03-05T11:00:00Z,29.4412,-92.0613,1007.04,11111222 
WAVCIS,ioos:station:WAVCIS:CSI03:1,2013-03-05T12:00:00Z,29.4412,-92.0613,1007.46,11111222 
WAVCIS,ioos:station:WAVCIS:CSI03:1,2013-03-05T13:00:00Z,29.4412,-92.0613,1010.31,11111222 
WAVCIS,ioos:station:WAVCIS:CSI03:1,2013-03-05T14:00:00Z,29.4412,-92.0613,1011.16,11111222 
WAVCIS,ioos:station:WAVCIS:CSI03:1,2013-03-05T15:00:00Z,29.4412,-92.0613,1011.6,11111222 
WAVCIS,ioos:station:WAVCIS:CSI03:1,2013-03-05T16:00:00Z,29.4412,-92.0613,1011.8,11111222 
WAVCIS,ioos:station:WAVCIS:CSI03:1,2013-03-05T17:00:00Z,29.4412,-92.0613,1011.97,11111222 
WAVCIS,ioos:station:WAVCIS:CSI03:1,2013-03-05T18:00:00Z,29.4412,-92.0613,1012.18,11111222 
WAVCIS,ioos:station:WAVCIS:CSI03:1,2013-03-05T19:00:00Z,29.4412,-92.0613,1011.88,11111222 
WAVCIS,ioos:station:WAVCIS:CSI03:1,2013-03-05T20:00:00Z,29.4412,-92.0613,1011.41,11111222 
WAVCIS,ioos:station:WAVCIS:CSI03:1,2013-03-05T21:00:00Z,29.4412,-92.0613,1011.32,11111222 
WAVCIS,ioos:station:WAVCIS:CSI03:1,2013-03-05T22:00:00Z,29.4412,-92.0613,1011.73,11111222 
WAVCIS,ioos:station:WAVCIS:CSI03:1,2013-03-05T23:00:00Z,29.4412,-92.0613,1012.19,11111222 
WAVCIS,ioos:station:WAVCIS:CSI03:1,2013-03-06T00:00:00Z,29.4412,-92.0613,1012.93,11111222 
WAVCIS,ioos:station:WAVCIS:CSI03:1,2013-03-06T01:00:00Z,29.4412,-92.0613,1013.72,11111222 
WAVCIS,ioos:station:WAVCIS:CSI03:1,2013-03-06T02:00:00Z,29.4412,-92.0613,1014.51,11111222 
WAVCIS,ioos:station:WAVCIS:CSI03:1,2013-03-06T03:00:00Z,29.4412,-92.0613,1015.59,11111222 
WAVCIS,ioos:station:WAVCIS:CSI03:1,2013-03-06T04:00:00Z,29.4412,-92.0613,1016.44,11111222 
WAVCIS,ioos:station:WAVCIS:CSI03:1,2013-03-06T05:00:00Z,29.4412,-92.0613,1017.28,11111222 
WAVCIS,ioos:station:WAVCIS:CSI03:1,2013-03-06T06:00:00Z,29.4412,-92.0613,1017.49,11111222 
WAVCIS,ioos:station:WAVCIS:CSI03:1,2013-03-06T07:00:00Z,29.4412,-92.0613,1017.85,11111222 
WAVCIS,ioos:station:WAVCIS:CSI03:1,2013-03-06T08:00:00Z,29.4412,-92.0613,1018.11,11111222 
WAVCIS,ioos:station:WAVCIS:CSI03:1,2013-03-06T09:00:00Z,29.4412,-92.0613,1018.14,11111222 
WAVCIS,ioos:station:WAVCIS:CSI03:1,2013-03-06T10:00:00Z,29.4412,-92.0613,1018.47,11111222 
WAVCIS,ioos:station:WAVCIS:CSI03:1,2013-03-06T11:00:00Z,29.4412,-92.0613,1019.22,11111222 
WAVCIS,ioos:station:WAVCIS:CSI03:1,2013-03-06T12:00:00Z,29.4412,-92.0613,1020.09,11111222 
WAVCIS,ioos:station:WAVCIS:CSI03:1,2013-03-06T13:00:00Z,29.4412,-92.0613,1020.67,11111222 
WAVCIS,ioos:station:WAVCIS:CSI03:1,2013-03-06T14:00:00Z,29.4412,-92.0613,1021.37,11111222 
WAVCIS,ioos:station:WAVCIS:CSI03:1,2013-03-06T15:00:00Z,29.4412,-92.0613,1021.39,11111222 
WAVCIS,ioos:station:WAVCIS:CSI03:1,2013-03-06T16:00:00Z,29.4412,-92.0613,1021.44,11111222 
WAVCIS,ioos:station:WAVCIS:CSI03:1,2013-03-06T17:00:00Z,29.4412,-92.0613,1021.71,11111222 
WAVCIS,ioos:station:WAVCIS:CSI03:1,2013-03-06T18:00:00Z,29.4412,-92.0613,1021.3,11111222 
WAVCIS,ioos:station:WAVCIS:CSI03:1,2013-03-06T19:00:00Z,29.4412,-92.0613,1019.89,11111222 
WAVCIS,ioos:station:WAVCIS:CSI03:1,2013-03-06T20:00:00Z,29.4412,-92.0613,1018.94,11111222 
WAVCIS,ioos:station:WAVCIS:CSI03:1,2013-03-06T21:00:00Z,29.4412,-92.0613,1018.4,11111222 
WAVCIS,ioos:station:WAVCIS:CSI03:1,2013-03-06T22:00:00Z,29.4412,-92.0613,1018.16,11111222 
WAVCIS,ioos:station:WAVCIS:CSI03:1,2013-03-06T23:00:00Z,29.4412,-92.0613,1017.7,11111222 
WAVCIS,ioos:station:WAVCIS:CSI03:1,2013-03-07T00:00:00Z,29.4412,-92.0613,1017.91,11111222 
WAVCIS,ioos:station:WAVCIS:CSI03:1,2013-03-07T01:00:00Z,29.4412,-92.0613,1018.23,11111222 
WAVCIS,ioos:station:WAVCIS:CSI03:1,2013-03-07T02:00:00Z,29.4412,-92.0613,1018.72,11111222 
WAVCIS,ioos:station:WAVCIS:CSI03:1,2013-03-07T03:00:00Z,29.4412,-92.0613,1018.75,11111222 
WAVCIS,ioos:station:WAVCIS:CSI03:1,2013-03-07T04:00:00Z,29.4412,-92.0613,1018.76,11111222 
WAVCIS,ioos:station:WAVCIS:CSI03:1,2013-03-07T05:00:00Z,29.4412,-92.0613,1018.28,11111222 
WAVCIS,ioos:station:WAVCIS:CSI03:1,2013-03-07T06:00:00Z,29.4412,-92.0613,1017.42,11111222 
WAVCIS,ioos:station:WAVCIS:CSI03:1,2013-03-07T07:00:00Z,29.4412,-92.0613,1017.47,11111222 
WAVCIS,ioos:station:WAVCIS:CSI03:1,2013-03-07T08:00:00Z,29.4412,-92.0613,1018.37,11111222 
WAVCIS,ioos:station:WAVCIS:CSI03:1,2013-03-07T09:00:00Z,29.4412,-92.0613,1018.26,11111222 
WAVCIS,ioos:station:WAVCIS:CSI03:1,2013-03-07T10:00:00Z,29.4412,-92.0613,1018.28,11111222 
WAVCIS,ioos:station:WAVCIS:CSI03:1,2013-03-07T11:00:00Z,29.4412,-92.0613,1018.39,11111222 
WAVCIS,ioos:station:WAVCIS:CSI03:1,2013-03-07T12:00:00Z,29.4412,-92.0613,1018.65,11111222 
WAVCIS,ioos:station:WAVCIS:CSI03:1,2013-03-07T13:00:00Z,29.4412,-92.0613,1019.11,11111222 
WAVCIS,ioos:station:WAVCIS:CSI03:1,2013-03-07T14:00:00Z,29.4412,-92.0613,1019.74,11111222 
WAVCIS,ioos:station:WAVCIS:CSI03:1,2013-03-07T15:00:00Z,29.4412,-92.0613,1020.69,11111222 
WAVCIS,ioos:station:WAVCIS:CSI03:1,2013-03-07T16:00:00Z,29.4412,-92.0613,1020.94,11111222 
WAVCIS,ioos:station:WAVCIS:CSI03:1,2013-03-07T17:00:00Z,29.4412,-92.0613,1021.14,11111222 
WAVCIS,ioos:station:WAVCIS:CSI03:1,2013-03-07T18:00:00Z,29.4412,-92.0613,1020.63,11111222 
WAVCIS,ioos:station:WAVCIS:CSI03:1,2013-03-07T19:00:00Z,29.4412,-92.0613,1019.25,11111222 
WAVCIS,ioos:station:WAVCIS:CSI03:1,2013-03-07T20:00:00Z,29.4412,-92.0613,1018.68,11111222 
WAVCIS,ioos:station:WAVCIS:CSI03:1,2013-03-07T21:00:00Z,29.4412,-92.0613,1018.29,11111222 
WAVCIS,ioos:station:WAVCIS:CSI03:1,2013-03-07T22:00:00Z,29.4412,-92.0613,1018.14,11111222 
WAVCIS,ioos:station:WAVCIS:CSI03:1,2013-03-07T23:00:00Z,29.4412,-92.0613,1017.74,11111222 
WAVCIS,ioos:station:WAVCIS:CSI03:1,2013-03-08T00:00:00Z,29.4412,-92.0613,1017.73,11111222 
WAVCIS,ioos:station:WAVCIS:CSI03:1,2013-03-08T01:00:00Z,29.4412,-92.0613,1017.85,11111222 
WAVCIS,ioos:station:WAVCIS:CSI03:1,2013-03-08T02:00:00Z,29.4412,-92.0613,1017.44,11111222 
WAVCIS,ioos:station:WAVCIS:CSI03:1,2013-03-08T03:00:00Z,29.4412,-92.0613,1018.01,11111222 
WAVCIS,ioos:station:WAVCIS:CSI03:1,2013-03-08T04:00:00Z,29.4412,-92.0613,1018.22,11111222 
WAVCIS,ioos:station:WAVCIS:CSI03:1,2013-03-08T05:00:00Z,29.4412,-92.0613,1017.78,11111222 
WAVCIS,ioos:station:WAVCIS:CSI03:1,2013-03-08T06:00:00Z,29.4412,-92.0613,1017.35,11111222 
WAVCIS,ioos:station:WAVCIS:CSI03:1,2013-03-08T07:00:00Z,29.4412,-92.0613,1016.99,11111222 
WAVCIS,ioos:station:WAVCIS:CSI03:1,2013-03-08T08:00:00Z,29.4412,-92.0613,1017.01,11111222 
WAVCIS,ioos:station:WAVCIS:CSI03:1,2013-03-08T09:00:00Z,29.4412,-92.0613,1016.45,11111222 
WAVCIS,ioos:station:WAVCIS:CSI03:1,2013-03-08T10:00:00Z,29.4412,-92.0613,1016.35,11111222 
WAVCIS,ioos:station:WAVCIS:CSI03:1,2013-03-08T11:00:00Z,29.4412,-92.0613,1016.59,11111222 
WAVCIS,ioos:station:WAVCIS:CSI03:1,2013-03-08T12:00:00Z,29.4412,-92.0613,1016.99,11111222 
WAVCIS,ioos:station:WAVCIS:CSI03:1,2013-03-08T13:00:00Z,29.4412,-92.0613,1017.72,11111222 
WAVCIS,ioos:station:WAVCIS:CSI03:1,2013-03-08T14:00:00Z,29.4412,-92.0613,1018.22,11111222 
WAVCIS,ioos:station:WAVCIS:CSI03:1,2013-03-08T15:00:00Z,29.4412,-92.0613,1018.94,11111222 
WAVCIS,ioos:station:WAVCIS:CSI03:1,2013-03-08T16:00:00Z,29.4412,-92.0613,1019.41,11111222 
WAVCIS,ioos:station:WAVCIS:CSI03:1,2013-03-08T17:00:00Z,29.4412,-92.0613,1019.23,11111222 
WAVCIS,ioos:station:WAVCIS:CSI03:1,2013-03-08T18:00:00Z,29.4412,-92.0613,1019.02,11111222 
WAVCIS,ioos:station:WAVCIS:CSI03:1,2013-03-08T19:00:00Z,29.4412,-92.0613,1017.75,11111222 
WAVCIS,ioos:station:WAVCIS:CSI03:1,2013-03-08T20:00:00Z,29.4412,-92.0613,1017.23,11111222 
WAVCIS,ioos:station:WAVCIS:CSI03:1,2013-03-08T21:00:00Z,29.4412,-92.0613,1017.06,11111222 
WAVCIS,ioos:station:WAVCIS:CSI03:1,2013-03-08T22:00:00Z,29.4412,-92.0613,1016.13,11111222 
WAVCIS,ioos:station:WAVCIS:CSI03:1,2013-03-08T23:00:00Z,29.4412,-92.0613,1014.98,11111222 
WAVCIS,ioos:station:WAVCIS:CSI03:1,2013-03-09T00:00:00Z,29.4412,-92.0613,1015.02,11111222 
WAVCIS,ioos:station:WAVCIS:CSI03:1,2013-03-09T01:00:00Z,29.4412,-92.0613,1015.83,11111222 
WAVCIS,ioos:station:WAVCIS:CSI03:1,2013-03-09T02:00:00Z,29.4412,-92.0613,1016.43,11111222 
WAVCIS,ioos:station:WAVCIS:CSI03:1,2013-03-09T03:00:00Z,29.4412,-92.0613,1016.37,11111222 
WAVCIS,ioos:station:WAVCIS:CSI03:1,2013-03-09T04:00:00Z,29.4412,-92.0613,1016.63,11111222 
WAVCIS,ioos:station:WAVCIS:CSI03:1,2013-03-09T05:00:00Z,29.4412,-92.0613,1015.16,11111222 
WAVCIS,ioos:station:WAVCIS:CSI03:1,2013-03-09T06:00:00Z,29.4412,-92.0613,1013.51,11111222 
WAVCIS,ioos:station:WAVCIS:CSI03:1,2013-03-09T07:00:00Z,29.4412,-92.0613,1013.2,11111222 
WAVCIS,ioos:station:WAVCIS:CSI03:1,2013-03-09T08:00:00Z,29.4412,-92.0613,1012.6,11111222 
WAVCIS,ioos:station:WAVCIS:CSI03:1,2013-03-09T09:00:00Z,29.4412,-92.0613,1011.39,11111222 
WAVCIS,ioos:station:WAVCIS:CSI03:1,2013-03-09T10:00:00Z,29.4412,-92.0613,1011.8,11111222 
WAVCIS,ioos:station:WAVCIS:CSI03:1,2013-03-09T11:00:00Z,29.4412,-92.0613,1011.7,11111222 
WAVCIS,ioos:station:WAVCIS:CSI03:1,2013-03-09T12:00:00Z,29.4412,-92.0613,1011.96,11111222 
WAVCIS,ioos:station:WAVCIS:CSI03:1,2013-03-09T13:00:00Z,29.4412,-92.0613,1012.38,11111222 
WAVCIS,ioos:station:WAVCIS:CSI03:1,2013-03-09T14:00:00Z,29.4412,-92.0613,1013.19,11111222 
WAVCIS,ioos:station:WAVCIS:CSI03:1,2013-03-09T15:00:00Z,29.4412,-92.0613,1013.6,11111222 
WAVCIS,ioos:station:WAVCIS:CSI03:1,2013-03-09T16:00:00Z,29.4412,-92.0613,1013.2,11111222 
WAVCIS,ioos:station:WAVCIS:CSI03:1,2013-03-09T17:00:00Z,29.4412,-92.0613,1012.92,11111222 
WAVCIS,ioos:station:WAVCIS:CSI03:1,2013-03-09T18:00:00Z,29.4412,-92.0613,1012.23,11111222 
WAVCIS,ioos:station:WAVCIS:CSI03:1,2013-03-09T19:00:00Z,29.4412,-92.0613,1011.39,11111222 
WAVCIS,ioos:station:WAVCIS:CSI03:1,2013-03-09T20:00:00Z,29.4412,-92.0613,1009.24,11111222 
WAVCIS,ioos:station:WAVCIS:CSI03:1,2013-03-09T21:00:00Z,29.4412,-92.0613,1008.9,11111222 
WAVCIS,ioos:station:WAVCIS:CSI03:1,2013-03-09T22:00:00Z,29.4412,-92.0613,1007.86,11111222 
WAVCIS,ioos:station:WAVCIS:CSI03:1,2013-03-09T23:00:00Z,29.4412,-92.0613,1007.74,11111222 
WAVCIS,ioos:station:WAVCIS:CSI03:1,2013-03-10T00:00:00Z,29.4412,-92.0613,1007.37,11111222 
WAVCIS,ioos:station:WAVCIS:CSI03:1,2013-03-10T01:00:00Z,29.4412,-92.0613,1005.83,11111222 
WAVCIS,ioos:station:WAVCIS:CSI03:1,2013-03-10T02:00:00Z,29.4412,-92.0613,1007.1,11111222 
WAVCIS,ioos:station:WAVCIS:CSI03:1,2013-03-10T03:00:00Z,29.4412,-92.0613,1006.7,11111222 
WAVCIS,ioos:station:WAVCIS:CSI03:1,2013-03-10T04:00:00Z,29.4412,-92.0613,1006.95,11111222 
WAVCIS,ioos:station:WAVCIS:CSI03:1,2013-03-10T05:00:00Z,29.4412,-92.0613,1005.72,11111222 
WAVCIS,ioos:station:WAVCIS:CSI03:1,2013-03-10T06:00:00Z,29.4412,-92.0613,1004.82,11111222 
WAVCIS,ioos:station:WAVCIS:CSI03:1,2013-03-10T07:00:00Z,29.4412,-92.0613,1003.8,11111222 
WAVCIS,ioos:station:WAVCIS:CSI03:1,2013-03-10T08:00:00Z,29.4412,-92.0613,1004.78,11111222 
WAVCIS,ioos:station:WAVCIS:CSI03:1,2013-03-10T09:00:00Z,29.4412,-92.0613,1004.74,11111222 
WAVCIS,ioos:station:WAVCIS:CSI03:1,2013-03-10T10:00:00Z,29.4412,-92.0613,1005.37,11111222 
WAVCIS,ioos:station:WAVCIS:CSI03:1,2013-03-10T11:00:00Z,29.4412,-92.0613,1004.79,11111222 
WAVCIS,ioos:station:WAVCIS:CSI03:1,2013-03-10T12:00:00Z,29.4412,-92.0613,1004.41,11111222 
WAVCIS,ioos:station:WAVCIS:CSI03:1,2013-03-10T13:00:00Z,29.4412,-92.0613,1004.8,11111222 
WAVCIS,ioos:station:WAVCIS:CSI03:1,2013-03-10T14:00:00Z,29.4412,-92.0613,1006.68,11111222 
WAVCIS,ioos:station:WAVCIS:CSI03:1,2013-03-10T15:00:00Z,29.4412,-92.0613,1007.43,11111222 
WAVCIS,ioos:station:WAVCIS:CSI03:1,2013-03-10T16:00:00Z,29.4412,-92.0613,1007.18,11111222 
WAVCIS,ioos:station:WAVCIS:CSI03:1,2013-03-10T17:00:00Z,29.4412,-92.0613,1006.38,11111222 
WAVCIS,ioos:station:WAVCIS:CSI03:1,2013-03-10T18:00:00Z,29.4412,-92.0613,1005.53,11111222 
WAVCIS,ioos:station:WAVCIS:CSI03:1,2013-03-10T19:00:00Z,29.4412,-92.0613,1003.91,11111222 
WAVCIS,ioos:station:WAVCIS:CSI03:1,2013-03-10T20:00:00Z,29.4412,-92.0613,1003.96,11111222 
WAVCIS,ioos:station:WAVCIS:CSI03:1,2013-03-10T21:00:00Z,29.4412,-92.0613,1004.0,11111222 
WAVCIS,ioos:station:WAVCIS:CSI03:1,2013-03-10T22:00:00Z,29.4412,-92.0613,1003.6,11111222 
WAVCIS,ioos:station:WAVCIS:CSI03:1,2013-03-10T23:00:00Z,29.4412,-92.0613,1003.6,11111222 
WAVCIS,ioos:station:WAVCIS:CSI03:1,2013-03-11T00:00:00Z,29.4412,-92.0613,1003.85,11111222 
WAVCIS,ioos:station:WAVCIS:CSI03:1,2013-03-11T01:00:00Z,29.4412,-92.0613,1003.88,11111222 
WAVCIS,ioos:station:WAVCIS:CSI03:1,2013-03-11T02:00:00Z,29.4412,-92.0613,1004.48,11111222 
WAVCIS,ioos:station:WAVCIS:CSI03:1,2013-03-11T03:00:00Z,29.4412,-92.0613,1005.74,11111222 
WAVCIS,ioos:station:WAVCIS:CSI03:1,2013-03-11T04:00:00Z,29.4412,-92.0613,1007.22,11111222 
WAVCIS,ioos:station:WAVCIS:CSI03:1,2013-03-11T05:00:00Z,29.4412,-92.0613,1007.3,11111222 
WAVCIS,ioos:station:WAVCIS:CSI03:1,2013-03-11T06:00:00Z,29.4412,-92.0613,1007.76,11111222 
WAVCIS,ioos:station:WAVCIS:CSI03:1,2013-03-11T07:00:00Z,29.4412,-92.0613,1008.17,11111222 
WAVCIS,ioos:station:WAVCIS:CSI03:1,2013-03-11T08:00:00Z,29.4412,-92.0613,1007.88,11111222 
WAVCIS,ioos:station:WAVCIS:CSI03:1,2013-03-11T09:00:00Z,29.4412,-92.0613,1008.6,11111222 
WAVCIS,ioos:station:WAVCIS:CSI03:1,2013-03-11T10:00:00Z,29.4412,-92.0613,1008.36,11111222 
WAVCIS,ioos:station:WAVCIS:CSI03:1,2013-03-11T11:00:00Z,29.4412,-92.0613,1009.1,11111222 
WAVCIS,ioos:station:WAVCIS:CSI03:1,2013-03-11T12:00:00Z,29.4412,-92.0613,1009.47,11111222 
WAVCIS,ioos:station:WAVCIS:CSI03:1,2013-03-11T13:00:00Z,29.4412,-92.0613,1010.14,11111222 
WAVCIS,ioos:station:WAVCIS:CSI03:1,2013-03-11T14:00:00Z,29.4412,-92.0613,1011.41,11111222 
WAVCIS,ioos:station:WAVCIS:CSI03:1,2013-03-11T15:00:00Z,29.4412,-92.0613,1011.52,11111222 
WAVCIS,ioos:station:WAVCIS:CSI03:1,2013-03-11T16:00:00Z,29.4412,-92.0613,1011.76,11111222 
WAVCIS,ioos:station:WAVCIS:CSI03:1,2013-03-11T17:00:00Z,29.4412,-92.0613,1010.85,11111222 
WAVCIS,ioos:station:WAVCIS:CSI03:1,2013-03-11T18:00:00Z,29.4412,-92.0613,1010.22,11111222 
WAVCIS,ioos:station:WAVCIS:CSI03:1,2013-03-11T19:00:00Z,29.4412,-92.0613,1009.27,11111222 
WAVCIS,ioos:station:WAVCIS:CSI03:1,2013-03-11T20:00:00Z,29.4412,-92.0613,1008.55,11111222 
WAVCIS,ioos:station:WAVCIS:CSI03:1,2013-03-11T21:00:00Z,29.4412,-92.0613,1008.17,11111222 
WAVCIS,ioos:station:WAVCIS:CSI03:1,2013-03-11T22:00:00Z,29.4412,-92.0613,1007.86,11111222 